�������l�o���
Date,Time,MP-1(��Sv/h),MP-2(��Sv/h),MP-3(��Sv/h),MP-4(��Sv/h),MP-5(��Sv/h),MP-6(��Sv/h),MP-7(��Sv/h),MP-8(��Sv/h),����,����(m/s),���J
2017/07/22,00:00,1.002,1.593,1.068,1.887,1.328,0.531,0.971,0.893,��,7.9,��
2017/07/22,00:10,1.002,1.593,1.069,1.888,1.330,0.532,0.971,0.894,��,8.3,��
2017/07/22,00:20,1.003,1.592,1.068,1.885,1.327,0.532,0.970,0.892,��,7.8,��
2017/07/22,00:30,1.005,1.594,1.067,1.890,1.327,0.531,0.970,0.892,��,7.9,��
2017/07/22,00:40,1.003,1.595,1.069,1.886,1.327,0.531,0.972,0.892,��,7.7,��
2017/07/22,00:50,1.003,1.594,1.068,1.888,1.328,0.531,0.971,0.892,��,8.0,��
2017/07/22,01:00,1.005,1.594,1.067,1.886,1.330,0.532,0.972,0.893,��,7.3,��
2017/07/22,01:10,1.002,1.593,1.067,1.885,1.329,0.530,0.971,0.890,��,7.7,��
2017/07/22,01:20,1.003,1.592,1.067,1.885,1.329,0.532,0.971,0.892,��,7.8,��
2017/07/22,01:30,1.004,1.591,1.067,1.888,1.328,0.530,0.971,0.891,��,7.4,��
2017/07/22,01:40,1.004,1.592,1.069,1.887,1.328,0.531,0.971,0.892,��,7.1,��
2017/07/22,01:50,1.003,1.593,1.067,1.887,1.329,0.531,0.972,0.894,��,6.5,��
2017/07/22,02:00,1.006,1.595,1.070,1.886,1.328,0.530,0.970,0.893,��,7.0,��
2017/07/22,02:10,1.004,1.595,1.068,1.888,1.328,0.531,0.969,0.892,��,7.3,��
2017/07/22,02:20,1.002,1.594,1.069,1.886,1.326,0.530,0.970,0.891,��,7.9,��
2017/07/22,02:30,1.005,1.591,1.066,1.885,1.326,0.532,0.971,0.892,��,8.4,��
2017/07/22,02:40,1.004,1.593,1.068,1.888,1.328,0.530,0.971,0.892,��,8.0,��
2017/07/22,02:50,1.004,1.589,1.068,1.887,1.327,0.532,0.972,0.893,��,7.1,��
2017/07/22,03:00,1.004,1.593,1.069,1.888,1.330,0.530,0.972,0.890,��,7.6,��
2017/07/22,03:10,1.005,1.591,1.069,1.887,1.326,0.532,0.971,0.892,��,7.4,��
2017/07/22,03:20,1.005,1.593,1.066,1.888,1.327,0.531,0.970,0.892,��,8.4,��
2017/07/22,03:30,1.005,1.593,1.069,1.889,1.327,0.530,0.970,0.893,��,7.9,��
2017/07/22,03:40,1.004,1.591,1.067,1.888,1.330,0.530,0.971,0.895,��,6.9,��
2017/07/22,03:50,1.005,1.592,1.067,1.890,1.326,0.532,0.973,0.893,��,6.7,��
2017/07/22,04:00,1.003,1.589,1.069,1.886,1.330,0.533,0.970,0.894,��,6.2,��
2017/07/22,04:10,1.005,1.592,1.067,1.889,1.328,0.533,0.971,0.893,��쐼,6.0,��
2017/07/22,04:20,1.003,1.591,1.065,1.890,1.329,0.533,0.971,0.891,��쐼,5.9,��
2017/07/22,04:30,1.004,1.592,1.067,1.886,1.329,0.531,0.972,0.894,��쐼,6.1,��
2017/07/22,04:40,1.002,1.594,1.066,1.886,1.327,0.533,0.971,0.894,��,6.0,��
2017/07/22,04:50,1.003,1.592,1.068,1.891,1.325,0.530,0.971,0.893,��쐼,6.1,��
2017/07/22,05:00,1.002,1.592,1.069,1.886,1.327,0.531,0.972,0.893,��쐼,5.8,��
2017/07/22,05:10,1.004,1.596,1.067,1.888,1.329,0.531,0.970,0.893,��쐼,5.3,��
2017/07/22,05:20,1.004,1.594,1.068,1.887,1.326,0.531,0.972,0.893,��쐼,5.2,��
2017/07/22,05:30,1.002,1.595,1.068,1.886,1.328,0.532,0.970,0.892,��쐼,4.6,��
2017/07/22,05:40,1.003,1.593,1.068,1.889,1.328,0.532,0.973,0.893,��쐼,5.2,��
2017/07/22,05:50,1.004,1.596,1.068,1.888,1.326,0.533,0.972,0.894,��,4.6,��
2017/07/22,06:00,1.004,1.591,1.069,1.886,1.327,0.532,0.972,0.893,��,4.0,��
2017/07/22,06:10,1.004,1.595,1.069,1.890,1.329,0.532,0.970,0.893,��,4.5,��
2017/07/22,06:20,1.005,1.595,1.069,1.888,1.330,0.532,0.970,0.892,��,4.1,��
2017/07/22,06:30,1.004,1.594,1.068,1.889,1.327,0.533,0.972,0.893,��,3.7,��
2017/07/22,06:40,1.005,1.593,1.068,1.890,1.327,0.532,0.973,0.893,��,4.1,��
2017/07/22,06:50,1.006,1.597,1.068,1.890,1.326,0.531,0.973,0.894,��,3.8,��
2017/07/22,07:00,1.004,1.594,1.068,1.889,1.328,0.531,0.973,0.892,��,3.6,��
2017/07/22,07:10,1.006,1.595,1.068,1.890,1.328,0.532,0.971,0.894,��,3.5,��
2017/07/22,07:20,1.007,1.594,1.071,1.890,1.329,0.533,0.973,0.893,��,4.3,��
2017/07/22,07:30,1.007,1.595,1.069,1.890,1.328,0.533,0.972,0.894,��,4.0,��
2017/07/22,07:40,1.007,1.595,1.071,1.890,1.330,0.532,0.970,0.894,��,3.7,��
2017/07/22,07:50,1.010,1.591,1.068,1.890,1.329,0.532,0.971,0.894,��,3.3,��
2017/07/22,08:00,1.008,1.594,1.068,1.895,1.327,0.534,0.974,0.894,��,2.9,��
2017/07/22,08:10,1.004,1.590,1.068,1.891,1.326,0.533,0.972,0.891,��,2.9,��
2017/07/22,08:20,1.008,1.592,1.069,1.893,1.328,0.533,0.974,0.890,��,3.0,��
2017/07/22,08:30,1.008,1.595,1.071,1.891,1.329,0.534,0.974,0.889,��,3.5,��
2017/07/22,08:40,1.010,1.595,1.071,1.890,1.330,0.533,0.971,0.890,��,3.9,��
2017/07/22,08:50,1.008,1.594,1.070,1.893,1.332,0.533,0.974,0.891,��,4.4,��
2017/07/22,09:00,1.008,1.596,1.070,1.893,1.334,0.536,0.974,0.890,��,4.3,��
2017/07/22,09:10,1.008,1.599,1.074,1.893,1.332,0.535,0.973,0.890,��,5.0,��
2017/07/22,09:20,1.007,1.598,1.073,1.893,1.334,0.534,0.976,0.891,��,4.9,��
2017/07/22,09:30,1.008,1.596,1.071,1.890,1.333,0.533,0.974,0.892,��,5.1,��
2017/07/22,09:40,1.006,1.595,1.073,1.892,1.332,0.534,0.976,0.890,��,5.5,��
2017/07/22,09:50,1.008,1.597,1.073,1.893,1.331,0.534,0.974,0.889,��,4.7,��
2017/07/22,10:00,1.009,1.603,1.074,1.895,1.337,0.535,0.974,0.891,��,4.8,��
2017/07/22,10:10,1.009,1.597,1.072,1.894,1.335,0.535,0.975,0.892,��,5.0,��
2017/07/22,10:20,1.009,1.598,1.073,1.893,1.332,0.534,0.973,0.888,��,5.7,��
2017/07/22,10:30,1.010,1.599,1.070,1.895,1.332,0.534,0.974,0.891,��,6.5,��
2017/07/22,10:40,1.012,1.603,1.073,1.896,1.334,0.534,0.973,0.891,��,6.5,��
2017/07/22,10:50,1.011,1.597,1.072,1.893,1.334,0.535,0.972,0.893,��,6.3,��
2017/07/22,11:00,1.012,1.599,1.074,1.893,1.337,0.533,0.973,0.892,��,6.8,��
2017/07/22,11:10,1.008,1.601,1.073,1.896,1.339,0.533,0.974,0.893,��,7.0,��
2017/07/22,11:20,1.011,1.600,1.075,1.894,1.336,0.534,0.974,0.893,��,7.0,��
2017/07/22,11:30,1.012,1.600,1.074,1.891,1.336,0.534,0.974,0.893,��,7.0,��
2017/07/22,11:40,1.010,1.601,1.073,1.895,1.340,0.533,0.974,0.891,��,7.9,��
2017/07/22,11:50,1.011,1.600,1.072,1.896,1.340,0.532,0.973,0.893,��,6.6,��
2017/07/22,12:00,1.012,1.599,1.074,1.898,1.337,0.533,0.976,0.892,��,7.0,��
2017/07/22,12:10,1.009,1.597,1.075,1.893,1.336,0.535,0.975,0.893,��,7.7,��
2017/07/22,12:20,1.012,1.599,1.077,1.895,1.338,0.534,0.975,0.893,��,7.6,��
2017/07/22,12:30,1.012,1.601,1.076,1.896,1.339,0.532,0.975,0.894,��,5.6,��
2017/07/22,12:40,1.012,1.602,1.076,1.896,1.338,0.534,0.974,0.893,��,5.3,��
2017/07/22,12:50,1.012,1.603,1.076,1.897,1.339,0.534,0.974,0.892,��,6.1,��
2017/07/22,13:00,1.013,1.601,1.075,1.897,1.341,0.533,0.976,0.894,��,8.5,��
2017/07/22,13:10,1.012,1.601,1.075,1.897,1.340,0.533,0.974,0.892,��,8.3,��
2017/07/22,13:20,1.012,1.602,1.075,1.901,1.339,0.532,0.974,0.894,��,8.1,��
2017/07/22,13:30,1.011,1.602,1.074,1.899,1.340,0.532,0.975,0.891,��,8.3,��
2017/07/22,13:40,1.012,1.602,1.076,1.900,1.341,0.535,0.976,0.893,��,9.0,��
2017/07/22,13:50,1.011,1.599,1.075,1.897,1.341,0.535,0.977,0.895,��,9.7,��
2017/07/22,14:00,1.013,1.605,1.075,1.901,1.341,0.535,0.975,0.894,��,8.4,��
2017/07/22,14:10,1.011,1.601,1.076,1.903,1.341,0.535,0.977,0.892,��,8.0,��
2017/07/22,14:20,1.012,1.604,1.074,1.901,1.338,0.534,0.977,0.894,��,8.3,��
2017/07/22,14:30,1.012,1.603,1.075,1.900,1.342,0.535,0.979,0.892,��,8.0,��
2017/07/22,14:40,1.011,1.603,1.073,1.897,1.342,0.534,0.979,0.893,��,8.2,��
2017/07/22,14:50,1.013,1.607,1.075,1.899,1.342,0.534,0.977,0.892,��,7.9,��
2017/07/22,15:00,1.012,1.603,1.077,1.898,1.341,0.534,0.977,0.893,��쐼,7.0,��
2017/07/22,15:10,1.013,1.603,1.076,1.900,1.337,0.533,0.975,0.893,���쐼,6.0,�L
2017/07/22,15:20,1.003,1.574,1.054,1.865,1.301,0.529,0.971,0.892,�k��,6.6,�L
2017/07/22,15:30,0.972,1.525,1.030,1.819,1.259,0.519,0.963,0.887,�k�k��,5.3,�L
2017/07/22,15:40,0.959,1.503,1.021,1.800,1.248,0.514,0.947,0.875,�k��,8.8,�L
2017/07/22,15:50,0.955,1.505,1.020,1.796,1.249,0.520,0.948,0.875,���k��,7.0,�L
2017/07/22,16:00,0.963,1.509,1.027,1.806,1.255,0.520,0.951,0.877,���k��,6.6,�L
2017/07/22,16:10,0.966,1.512,1.026,1.806,1.257,0.522,0.951,0.878,���k��,7.1,�L
2017/07/22,16:20,0.965,1.510,1.026,1.805,1.256,0.522,0.952,0.877,���k��,4.2,�L
2017/07/22,16:30,0.967,1.513,1.027,1.809,1.259,0.522,0.952,0.879,�쐼,3.6,�L
2017/07/22,16:40,0.970,1.518,1.027,1.810,1.261,0.522,0.953,0.877,�쐼,5.0,�L
2017/07/22,16:50,0.968,1.514,1.027,1.810,1.261,0.523,0.953,0.878,��쐼,5.1,�L
2017/07/22,17:00,0.967,1.519,1.026,1.809,1.260,0.523,0.949,0.879,��,8.0,�L
2017/07/22,17:10,0.968,1.513,1.027,1.811,1.260,0.521,0.952,0.879,��,6.8,��
2017/07/22,17:20,0.966,1.516,1.024,1.809,1.259,0.519,0.951,0.879,��,5.9,��
2017/07/22,17:30,0.966,1.515,1.023,1.808,1.258,0.520,0.953,0.877,��,6.1,��
2017/07/22,17:40,0.966,1.516,1.023,1.811,1.260,0.521,0.953,0.880,��쓌,5.6,��
2017/07/22,17:50,0.965,1.512,1.022,1.812,1.255,0.520,0.953,0.880,��,6.3,��
2017/07/22,18:00,0.963,1.514,1.022,1.809,1.258,0.520,0.954,0.881,��,6.1,��
2017/07/22,18:10,0.963,1.513,1.021,1.814,1.256,0.519,0.952,0.881,��,6.7,��
2017/07/22,18:20,0.963,1.514,1.021,1.813,1.257,0.518,0.954,0.882,��,6.7,��
2017/07/22,18:30,0.960,1.514,1.022,1.817,1.260,0.518,0.953,0.883,��쐼,6.5,��
2017/07/22,18:40,0.962,1.513,1.023,1.815,1.259,0.519,0.952,0.883,��쐼,6.3,��
2017/07/22,18:50,0.962,1.514,1.023,1.815,1.261,0.519,0.952,0.881,��쐼,4.6,��
2017/07/22,19:00,0.958,1.515,1.022,1.814,1.260,0.518,0.954,0.881,��,4.2,��
2017/07/22,19:10,0.961,1.515,1.021,1.815,1.260,0.521,0.954,0.880,��,4.8,��
2017/07/22,19:20,0.960,1.517,1.023,1.815,1.261,0.522,0.953,0.881,��,6.0,��
2017/07/22,19:30,0.960,1.516,1.021,1.816,1.260,0.519,0.954,0.879,��,5.6,��
2017/07/22,19:40,0.961,1.517,1.022,1.815,1.258,0.520,0.954,0.881,��,6.1,��
2017/07/22,19:50,0.963,1.517,1.022,1.815,1.261,0.521,0.954,0.881,��,6.1,��
2017/07/22,20:00,0.962,1.520,1.025,1.819,1.260,0.520,0.956,0.881,��,5.7,��
2017/07/22,20:10,0.961,1.517,1.021,1.815,1.260,0.521,0.953,0.880,��,5.5,��
2017/07/22,20:20,0.962,1.517,1.023,1.817,1.263,0.521,0.953,0.881,��쐼,5.4,��
2017/07/22,20:30,0.962,1.520,1.025,1.816,1.261,0.521,0.953,0.881,��,4.8,��
2017/07/22,20:40,0.962,1.520,1.024,1.815,1.258,0.521,0.954,0.879,��,5.3,��
2017/07/22,20:50,0.963,1.519,1.022,1.818,1.263,0.521,0.953,0.880,��,6.5,��
2017/07/22,21:00,0.960,1.521,1.026,1.817,1.262,0.522,0.955,0.881,��,6.5,��
2017/07/22,21:10,0.961,1.520,1.022,1.819,1.260,0.521,0.954,0.883,��,6.1,��
2017/07/22,21:20,0.963,1.519,1.023,1.816,1.263,0.521,0.956,0.881,��쐼,6.2,��
2017/07/22,21:30,0.962,1.521,1.023,1.818,1.260,0.521,0.954,0.880,��쐼,5.9,��
2017/07/22,21:40,0.961,1.521,1.024,1.818,1.262,0.520,0.955,0.881,��쐼,6.3,��
2017/07/22,21:50,0.960,1.522,1.023,1.818,1.263,0.521,0.956,0.881,��쐼,5.9,��
2017/07/22,22:00,0.960,1.520,1.024,1.816,1.264,0.521,0.953,0.880,��,5.4,��
2017/07/22,22:10,0.961,1.521,1.025,1.819,1.264,0.522,0.954,0.881,��쐼,5.1,��
2017/07/22,22:20,0.962,1.520,1.023,1.816,1.265,0.521,0.955,0.882,��,6.5,��
2017/07/22,22:30,0.963,1.520,1.022,1.818,1.262,0.522,0.954,0.880,��쐼,5.8,��
2017/07/22,22:40,0.960,1.521,1.024,1.818,1.261,0.522,0.955,0.880,��,5.7,��
2017/07/22,22:50,0.961,1.523,1.025,1.818,1.264,0.520,0.955,0.882,��,4.9,��
2017/07/22,23:00,0.962,1.522,1.025,1.818,1.262,0.523,0.955,0.880,��쐼,4.9,��
2017/07/22,23:10,0.962,1.520,1.023,1.818,1.263,0.521,0.955,0.881,��,5.1,��
2017/07/22,23:20,0.961,1.519,1.025,1.817,1.265,0.521,0.955,0.881,��,4.7,��
2017/07/22,23:30,0.961,1.521,1.023,1.818,1.262,0.522,0.955,0.880,��,4.7,��
2017/07/22,23:40,0.964,1.521,1.025,1.819,1.264,0.519,0.954,0.882,��,5.1,��
2017/07/22,23:50,0.963,1.523,1.024,1.819,1.264,0.522,0.955,0.882,��,4.6,��
